{"data":{"norad_id":57641,"intl_designator":"2023-122K","name":"STARLINK-30312","alt_names":[],"object_type":"PAYLOAD","status":"ACTIVE","operator":null,"country":"US","launch_date":"2023-08-17","launch_site_code":"AFETR","launch_vehicle":null,"mission":null,"orbit_class":"UNKNOWN","rcs_meters":null,"size_class":null,"mass_kg":null,"dimensions":null,"purposes":["comms"],"wikipedia_slug":null,"has_3d_model":false,"image_url":null,"decayed_at":null,"tle_current":{"epoch":"2026-09-20T21:07:42.925152Z","epoch_age_seconds":98709,"freshness":"FRESH","line1":"1 57641U 23122K   26263.88035793  .00000248  00000+0  18525-4 0  9993","line2":"2 57641  43.0020  69.7591 0001434 267.0099  93.0589 15.27575975172069","mean_motion":15.27575975,"eccentricity":0.0001434,"inclination_deg":43.002,"raan_deg":69.7591,"arg_perigee_deg":267.0099,"mean_anomaly_deg":93.0589,"bstar":1.8525e-5,"rev_number":17206,"period_min":94.266997096495,"perigee_km":482.07725254963,"apogee_km":484.04504417858,"semimajor_km":6861.1981483641,"source":"CELESTRAK","updated_at":"2026-09-21T09:00:33.666936Z"}}}